Regional Weather Roundup
Issued by NWS

Home | Current Version | Previous Version | Text Only | Print | Product List | Glossary Off
Versions: 1 2 3 4 5 6 7 8 9 10 11 12 13 14 15 16 17 18 19 20 21 22 23 24 25 26 27 28 29 30 31 32 33 34 35 36 37 38 39 40 41 42 43 44 45 46 47 48 49 50

000
ASUS43 KLSX 050810
RWRMO

WEATHER SUMMARY FOR MISSOURI
NATIONAL WEATHER SERVICE SPRINGFIELD MO
300 AM CDT WED AUG 05 2015

NOTE: "FAIR" INDICATES FEW OR NO CLOUDS BELOW 12,000 FEET WITH NO
       SIGNIFICANT WEATHER AND/OR OBSTRUCTIONS TO VISIBILITY.
       CURRENT SKY AND/OR WEATHER CONDITIONS ARE NOT AVAILABLE FOR
       CHILLICOTHE AND FARMINGTON.

MOZ001>031-035>038-043-044-053-054-050900-
...NORTHERN AND WESTERN MISSOURI...

CITY           SKY/WX    TMP DP  RH WIND       PRES   REMARKS
KANSAS CTY INT MOCLDY    70  68  93 SE5       29.99S
KANSAS C DTWN  CLOUDY    73  70  90 NE3       29.98S
LEE`S SUMMIT   CLOUDY    71  68  90 SE8       29.99F
ST JOSEPH      CLOUDY    70  68  93 SE5       29.99R
CHILLICOTHE      N/A     71  69  93 CALM      30.00R
KIRKSVILLE     CLEAR     67  63  87 NE6       30.00S

$$
MOZ066>068-077>081-088>096-101>105-050900-
...SOUTHWEST MISSOURI...

CITY           SKY/WX    TMP DP  RH WIND       PRES   REMARKS
SPRINGFIELD    CLOUDY    71  69  93 SE9       29.99R
JOPLIN         LGT RAIN  73  70  90 SE5       29.96F

$$
MOZ032>034-039>042-045>050-055>058-069>072-050900-
...CENTRAL MISSOURI...

CITY           SKY/WX    TMP DP  RH WIND       PRES   REMARKS
COLUMBIA       MOCLDY    69  66  90 SW5       30.02S
JEFFERSON CITY LGT RAIN  71  67  87 CALM      30.00R
ROLLA          LGT RAIN  69  64  84 S8        30.00F
SEDALIA        CLOUDY    71  68  90 CALM      30.01R
WHITEMAN AFB   LGT RAIN  70  66  88 S8        29.98F
OSAGE BEACH    CLOUDY    70  66  88 S7        29.99F

$$
MOZ051-052-059>065-050900-
...EAST CENTRAL MISSOURI...

CITY           SKY/WX    TMP DP  RH WIND       PRES   REMARKS
ST LOUIS INTL  MOCLDY    75  68  78 E9        30.00S
SPIRIT OF STL  MOCLDY    75  71  87 NE8       29.98S
ST CHARLES     CLOUDY    73  68  84 NE8       29.99S

$$
MOZ072>076-082>087-097>100-106>115-050900-
...SOUTH CENTRAL AND SOUTHEAST MISSOURI...

CITY           SKY/WX    TMP DP  RH WIND       PRES   REMARKS
CAPE GIRARDEAU MOCLDY    76  71  85 E5        29.96F
FARMINGTON     CLOUDY    73  72  94 CALM      30.02F
POPLAR BLUFF   LGT RAIN  76  70  82 W8        29.96F
WEST PLAINS    CLOUDY    69  65  86 NW5       30.03S

$$



USA.gov is the U.S. government's official web portal to all federal, state and local government web resources and services.